BREEZE-KM DEB, 41723

Orbit data source: Space-Track

BREEZE-KM DEB, 41723 is space debris in LEO originally from a launch on Tue, 31 Mar 2015 UTC launched from the Plesetsk Missile And Space Complex (PKMTR). Debris objects in space refer to the collection of defunct objects orbiting the Earth. Examples of debris include non-operational satellites, rocket bodies, and fragments generated from explosions, collisions, or faulty payload assembly.

Loading next visibility...
Identifier
41723, 2015-020L
Orbit
LEO
Last TLE update
6 days ago
Origin
Manufacturer
Khrunichev
Mission
Spacecraft
Bus & Motor
Unknown
Mass
Unknown
Launch date (UTC)
2015-03-31 (10 years ago)
Launch vehicle
Unknown
Launch site
Plesetsk Missile And Space Complex (PKMTR)
Object type
Payload
Rocket body
Debris
Shape & HBR
Unknown
Radar Cross Section
Small (<0.1 m²)

Expand to show TLE details & history

TLE from 6 days ago
0 BREEZE-KM DEB
1 41723U 15020L   25175.89353640  .00000108  00000-0  31882-3 0  9997
2 41723  82.4890  32.6255 0222553 358.2917   1.7406 12.92752681453167
Epoch: 2025-06-24T21:26Z
TLE epoch observation values (Epoch: 2025-06-24T21:26:41.544Z)
Latitude
-0.00005°
Longitude
157.66947°
Altitude
1,122.773 km
Speed
7.372 km/s
True Right ascension
02h 10m 30s
True Declination
0° 00' 00"
Sunlit
Object was in daylight at epoch
Visualization orbit readout
Latitude
-70.79707°
Longitude
-4.62893°
Altitude
1,315.143 km
Speed
7.2 km/s
Apparent Right ascension
10h 32m 06s
Apparent Declination
-66° 01' 14"
Sunlit
Object is in full shadow
Visualization observer readout
Local Sidereal Time
20:33:51
Azimuth
202.929° SW
Elevation
-59.028°
Doppler factor
1
Orbital elements
Apogee altitude
1,458.507 km
Perigee altitude
1,117.287 km
Semi-major axis
7,666.034 km
Eccentricity
0.02226
Inclination
82.489°
RAAN
32.6255°
Arg. of periapsis
358.2917°
True anomaly
Unknown
Mean anomaly
1.7406°
Eccentric anomaly
Unknown
Mean motion
3.23361 °/min
Orbital period
111.33 mins
BSTAR
0.00031882
Loading maneuver chart data...
Loading SW <> Apogee altitude chart data...
Loading historical data...
Loading historical data...
Loading historical data...
Loading historical data...
Loading historical data...
Loading historical data...
Loading historical data...

BREEZE-KM DEB Visibility forecast

Observer location: undefined°, undefined°

Span
Click to sort rows by Start time (UTC) header in descending order
Start Az.
Max El. time (UTC)
Max El. Az.
Max El.
End time (UTC)
End Az.
11 mins2025-07-01 13:17:39.871Z135.397° SSE2025-07-01 13:22:39.871Z88.109° E24.183°2025-07-01 13:28:39.871Z31.522° NE
12 mins2025-07-01 15:09:39.871Z213.37° SW2025-07-01 15:14:39.871Z279.231° WNW38.095°2025-07-01 15:21:39.871Z357.485° N
15 mins2025-07-02 00:55:39.871Z5.8° NNE2025-07-02 01:02:39.871Z83.873° E38.068°2025-07-02 01:10:39.871Z151.663° SSE
13 mins2025-07-02 02:48:39.871Z327.785° NNW2025-07-02 02:54:39.871Z270.018° WNW29.345°2025-07-02 03:01:39.871Z214.782° SW
|